TITAN 3C TRANSTAGE DEB, 1671

Orbit data source: Space-Track

TITAN 3C TRANSTAGE DEB, 1671 is space debris in LEO originally from a launch on Fri, 15 Oct 1965 UTC launched from the Air Force Eastern Test Range (AFETR). Debris objects in space refer to the collection of defunct objects orbiting the Earth. Examples of debris include non-operational satellites, rocket bodies, and fragments generated from explosions, collisions, or faulty payload assembly.

Loading next visibility...
Identifier
1671, 1965-082AJ
Orbit
LEO
Country
Flag of USUS
Related business
Manufacturer
Unknown
Mission
Spacecraft
Bus & Motor
Unknown
Mass
Unknown
Launch date (UTC)
1965-10-15 (60 years ago)
Launch vehicle
Unknown
Launch site
Air Force Eastern Test Range (AFETR)
Object type
Payload
Rocket body
Debris
Shape & HBR
Unknown shape, 0.3 m
Radar Cross Section
Medium (>0.1 m² and <1 m²)

Expand to show TLE details & history
Last TLE update: 21 hours ago

TLE from 21 hours ago
0 TITAN 3C TRANSTAGE DEB
1 01671U 65082AJ  25352.44989311  .00000354  00000-0  73442-4 0  9998
2 01671  32.1621  27.6760 0052109  62.8721 297.7224 14.53841476160073
Epoch: 2025-12-18T10:47Z
TLE epoch observation values (Epoch: 2025-12-18T10:47:50.764Z)
Latitude
-0.00004°
Longitude
138.4092°
Altitude
694.754 km
Speed
7.52 km/s
True Right ascension
01h 50m 42s
True Declination
0° 00' 00"
Sunlit
Object was in full shadow at epoch
Visualization orbit readout
Latitude
Unknown
Longitude
Unknown
Altitude
Unknown
Speed
Unknown
Apparent Right ascension
Unknown
Apparent Declination
Unknown
Sunlit
N/A
Visualization observer readout
Local Sidereal Time
06:22:17
Azimuth
Unknown
Elevation
Unknown
Doppler factor
Unknown
Orbital elements
Apogee altitude
753.677 km
Perigee altitude
679.736 km
Semi-major axis
7,094.843 km
Eccentricity
0.00521
Inclination
32.1621°
RAAN
27.676°
Arg. of periapsis
62.8721°
True anomaly
297.19222°
Mean anomaly
297.7224°
Eccentric anomaly
297.45747°
Mean motion
3.63186 °/min
Orbital period
99.12 mins
BSTAR
0.000073442

Documentation

Showing up to 5 results
|